Starlink 5147

operational
NORAD ID: 53985 Int'l Des: 2022-125 Owner: SPXS Country: US Constellation: starlink
LEOCIRCULAR

Über Starlink 5147

Beschreibung wird geladen...

Live-Position

3D-Globus wird geladen...

Nächste Überflüge

Höhenverlauf

Altitude vs Time

uPlot chart will show altitude changes over time

Zweizeiliger Elementsatz

1 53985U 22125X 25353.89956635 -.00000690 00000-0 -25257-4 0 9993
2 53985 53.2158 212.5457 0001382 82.6943 277.4206 15.08834916177411
Epoch: 19. Dez. 2025 • Age: 15 hours

Aktueller Status

Höhe 540.2 km
Geschwindigkeit 7.60 km/s
Subsatellitenpunkt 24.22°N, 92.52°E
Startdatum 5. Okt. 2022
Alter 3.2 years
Typ internet

Technische Details

Klassifizierung Payload
Masse 305.00 kg
Trockenmasse 290.00 kg
Gesamtmasse 305.00 kg
Länge 0.20 m
Durchmesser 2.80 m
Spannweite 9.00 m
Form Box + pan
Hersteller SPXS
Bus-Typ Starlink
Phasenstatus In Orbit
Besitzer/Staat SPXS/US

Große Konstellationen

Loading constellations...